Wind_Speed
25 25 24 23 22 21 20 20 19 17 16 14 13 13 12 11 9 9 8 7 7 6 5 5 4 4 4 4 3 3 2 3 3 3 4 4 5 6 6 7 7 7 7
28 27 27 26 24 23 23 22 21 20 19 17 16 15 14 14 12 11 11 9 8 8 7 7 6 6 6 6 5 5 4 5 4 4 4 5 6 6 7 8 8 8 9
31 29 28 28 27 25 24 23 23 22 21 20 19 17 16 16 15 13 13 12 10 9 9 9 8 8 8 8 8 7 7 7 7 7 7 7 7 7 8 9 9 10 10
33 32 30 28 28 28 26 25 25 24 23 22 21 20 19 18 17 16 15 14 12 11 11 11 10 10 10 10 10 10 9 9 9 9 9 9 10 10 10 10 11 11 12
36 34 32 30 29 29 29 27 27 26 25 23 23 22 22 20 20 18 17 16 15 14 13 13 13 12 12 12 12 12 12 11 11 11 11 11 11 12 12 12 12 13 14
37 35 34 33 31 31 30 30 28 28 28 26 25 23 23 22 21 21 20 19 18 17 16 15 15 14 14 14 14 15 14 14 14 14 14 14 14 14 14 14 15 15 16
40 37 36 36 34 33 32 31 30 29 29 28 26 25 25 24 24 23 22 21 20 19 19 18 17 17 17 17 17 17 17 17 17 17 17 17 16 16 17 17 17 17 17
40 39 38 37 36 34 33 32 30 30 30 29 28 26 25 24 26 25 25 24 23 22 21 21 20 20 20 19 19 19 19 19 19 19 19 19 19 19 19 19 19 20 20
40 39 38 38 36 34 34 34 32 30 31 30 29 28 26 25 26 25 25 25 24 23 23 23 22 22 22 22 22 22 21 21 21 21 21 21 21 22 22 22 22 22 23
38 39 38 37 35 34 34 34 34 33 32 31 30 30 29 27 27 26 25 25 26 25 24 25 24 23 23 23 23 23 23 24 24 24 24 24 24 24 24 25 25 25 25
37 37 36 36 35 35 34 34 34 34 32 32 31 32 32 30 28 27 26 25 25 24 24 25 25 25 25 24 24 24 25 25 26 26 27 27 27 27 27 27 27 27 28
34 35 35 35 34 34 34 35 33 33 33 32 32 32 32 31 31 29 28 27 25 25 26 26 26 26 26 25 25 26 26 26 27 27 28 28 29 29 29 30 30 30 30
31 32 32 33 34 33 33 33 32 32 32 32 31 30 29 30 30 30 29 29 29 28 28 27 28 28 27 27 26 27 27 28 28 29 29 30 31 31 31 32 32 32 32
27 29 30 31 31 31 31 31 31 30 30 29 29 30 29 28 28 28 29 29 29 30 29 29 29 29 29 29 28 29 30 30 31 31 31 32 32 33 33 33 34 34 34
22 24 26 28 28 28 29 29 29 29 28 28 28 28 28 28 27 27 28 29 29 30 30 31 31 31 31 31 31 31 32 32 32 32 33 33 33 34 34 35 35 35 35
16 19 21 24 25 25 26 27 28 27 27 27 28 28 28 28 27 29 30 30 30 31 31 30 30 31 31 31 32 32 32 31 32 33 33 34 34 34 35 35 36 36 36
12 14 15 18 21 22 24 25 27 28 27 26 26 27 27 28 28 30 29 29 30 30 30 30 30 30 31 32 32 32 32 32 33 34 34 34 34 35 35 36 36 36 36
6 8 10 13 16 19 21 23 23 25 25 25 25 26 26 26 27 28 29 29 29 28 29 30 29 29 30 30 30 30 30 31 32 33 33 33 33 33 35 35 34 33 32
4 5 6 9 12 15 17 18 19 21 22 23 23 24 25 25 25 26 27 27 27 27 27 28 29 29 28 28 28 28 27 27 28 29 30 30 31 32 32 31 30 28 28
5 4 4 5 8 10 12 14 16 18 20 21 22 22 22 23 23 24 25 25 25 26 26 26 26 27 26 26 26 26 25 24 25 25 25 26 26 26 26 26 25 25 25
7 6 5 6 7 8 10 12 14 16 18 19 20 20 21 21 22 22 22 23 24 24 23 23 22 22 23 23 22 23 23 23 22 21 21 21 21 21 21 22 23 23 23
9 8 7 6 7 7 7 9 11 13 15 17 17 18 19 20 20 20 20 20 20 20 20 19 19 18 18 19 19 19 19 20 20 18 18 17 16 16 17 18 19 19 20
11 9 8 7 7 7 7 7 8 10 11 12 13 15 16 16 16 16 16 17 17 16 16 15 15 15 15 15 16 17 16 15 15 14 14 13 14 15 15 16 16 17 18
13 11 10 9 7 6 5 5 6 7 8 9 11 12 12 13 13 13 13 13 14 14 14 14 14 13 13 14 14 14 12 11 11 10 10 10 12 12 13 13 14 15 16
15 14 13 12 9 6 4 3 3 4 4 6 7 9 9 10 10 10 10 11 12 12 13 12 12 11 10 10 10 9 9 8 8 7 7 8 9 10 11 11 12 13 13
17 15 15 14 12 10 7 4 2 0 2 3 4 6 7 8 7 7 8 8 8 9 10 11 10 9 8 8 7 7 7 6 6 6 6 7 7 8 9 10 10 10 10
Wind_Direction
260 258 257 256 259 262 259 256 256 256 257 256 254 253 252 250 247 249 253 251 251 253 259 261 259 259 254 252 244 238 231 240 241 242 235 231 230 229 231 230 234 234 237
261 261 258 258 259 262 260 257 255 255 255 255 254 253 251 250 248 247 251 250 250 251 255 258 256 256 253 252 251 248 253 256 253 252 250 245 244 241 241 241 241 244 245
262 262 261 260 260 260 259 257 256 255 254 252 252 253 252 251 249 248 250 249 249 251 254 255 255 256 256 256 256 257 260 259 256 256 257 257 255 254 252 250 249 251 251
263 263 262 262 260 259 258 256 257 258 254 250 250 251 251 251 250 247 246 248 250 253 254 255 255 257 259 259 259 260 263 263 263 263 263 263 262 261 259 258 257 257 257
268 263 262 262 263 260 256 257 257 253 253 249 248 249 249 249 249 248 246 246 248 252 254 254 254 255 258 260 260 261 263 265 267 268 269 268 267 265 263 263 263 263 263
269 267 264 264 261 260 257 258 259 253 250 250 246 244 246 246 247 247 247 246 247 249 252 253 254 255 257 260 262 261 263 264 266 268 269 271 271 270 268 269 268 268 268
269 268 268 266 263 262 259 260 259 255 249 248 247 246 245 246 247 247 247 246 247 248 249 252 254 255 256 259 262 263 264 265 266 267 269 269 271 272 272 272 272 272 272
268 267 266 265 264 263 261 262 259 254 250 247 248 248 245 247 247 245 245 246 247 247 248 248 250 253 256 258 260 263 265 266 267 268 269 270 271 273 274 274 274 274 274
265 265 264 263 262 261 260 260 256 253 249 248 247 244 243 245 246 244 242 245 248 248 250 250 248 251 254 257 259 261 263 265 266 268 269 270 271 273 274 276 276 276 277
261 260 261 260 258 257 257 257 254 254 251 250 249 245 242 243 244 243 242 243 246 249 250 251 250 252 254 256 260 262 264 265 265 266 268 269 271 273 274 276 277 277 278
258 257 255 254 253 254 254 253 251 253 251 250 250 246 242 242 241 241 241 244 246 248 248 250 252 255 256 256 258 263 264 265 265 266 267 268 270 272 275 277 277 278 278
255 253 251 250 251 250 250 250 250 251 250 250 251 248 244 241 241 240 242 244 246 247 249 251 253 256 257 257 258 260 263 263 264 265 266 267 269 271 273 276 277 278 278
251 249 249 248 247 246 247 246 247 249 249 251 250 247 243 242 241 241 244 245 246 247 249 251 252 255 256 256 257 257 260 262 264 265 265 267 268 270 272 274 276 277 277
248 246 245 245 244 243 243 244 244 248 247 248 247 248 245 242 242 242 243 244 246 248 250 251 252 254 255 257 259 259 260 263 265 266 267 267 268 269 272 273 274 275 276
245 243 242 241 240 240 240 241 243 245 246 246 247 250 249 249 249 248 248 247 246 249 251 253 254 256 258 258 259 260 261 264 265 267 268 268 269 269 271 273 273 273 273
245 244 240 236 237 237 236 238 241 240 241 243 244 246 246 246 249 251 250 248 249 251 253 255 255 256 259 261 260 262 262 263 265 267 267 268 269 271 272 273 272 272 272
251 250 246 242 240 239 238 240 240 239 240 239 240 241 241 244 246 247 246 247 250 251 253 254 255 257 260 261 261 261 263 265 265 266 267 268 270 271 271 270 272 274 274
280 263 254 247 245 243 243 243 242 241 242 241 239 240 241 244 245 246 244 246 249 252 254 254 256 259 260 262 264 264 265 265 266 266 266 268 270 271 271 270 270 271 272
321 286 265 253 250 247 245 244 240 240 242 243 243 243 244 246 247 247 247 248 251 253 256 256 258 260 261 263 265 265 267 267 267 267 267 268 269 270 269 268 268 269 271
354 321 297 276 264 256 250 246 241 243 244 245 246 246 247 247 248 250 250 250 251 254 256 257 259 260 260 262 263 263 264 265 267 269 267 268 269 268 267 268 269 272 274
4 347 326 303 291 276 262 254 249 248 246 245 247 248 248 250 252 251 251 252 252 254 255 257 259 262 260 259 259 261 261 262 263 264 267 269 270 271 272 273 273 274 278
4 354 341 326 310 293 279 263 254 250 246 247 248 248 249 251 251 249 251 252 251 252 254 256 257 258 257 256 256 256 259 259 260 262 266 268 269 269 271 273 276 280 283
15 7 359 347 330 314 295 278 269 257 250 248 247 247 249 249 247 246 247 246 245 247 250 250 250 251 251 252 252 252 251 251 255 261 263 266 269 271 276 279 282 285 287
19 16 12 3 349 332 309 286 272 264 251 246 242 240 238 237 238 240 241 239 238 239 243 245 245 243 241 244 249 251 249 247 250 254 260 269 275 280 284 287 289 292 294
25 24 21 18 14 10 350 316 289 269 252 240 232 228 225 223 224 228 229 230 231 231 233 234 234 233 232 235 236 239 237 238 245 255 264 276 286 290 294 296 296 297 300
31 30 27 25 24 24 28 33 24 307 234 230 215 205 197 197 202 203 208 213 214 216 217 219 223 222 220 219 222 226 226 233 246 256 268 282 294 301 302 303 305 309 312
Height
5890 5892 5893 5894 5894 5895 5895 5896 5897 5897 5898 5898 5899 5899 5900 5900 5901 5902 5902 5902 5903 5903 5904 5904 5905 5905 5906 5906 5907 5908 5908 5909 5909 5910 5911 5912 5913 5914 5915 5916 5917 5918 5919
5884 5885 5887 5888 5889 5890 5891 5892 5893 5893 5894 5895 5895 5896 5897 5898 5899 5900 5900 5900 5901 5901 5902 5903 5904 5904 5905 5906 5906 5907 5907 5908 5909 5909 5910 5910 5911 5912 5913 5914 5915 5916 5917
5877 5879 5880 5882 5883 5884 5885 5887 5888 5889 5890 5891 5892 5893 5894 5894 5896 5897 5897 5898 5899 5900 5900 5901 5902 5903 5904 5904 5905 5906 5906 5907 5907 5908 5909 5909 5910 5911 5912 5913 5913 5914 5915
5869 5872 5873 5875 5877 5878 5880 5881 5882 5884 5885 5886 5888 5889 5890 5891 5892 5894 5895 5896 5897 5898 5899 5899 5900 5901 5902 5903 5904 5904 5905 5905 5906 5907 5907 5908 5908 5909 5910 5910 5911 5912 5912
5861 5863 5866 5867 5869 5872 5873 5875 5877 5878 5879 5881 5882 5884 5886 5887 5888 5890 5891 5893 5894 5895 5896 5897 5898 5899 5900 5901 5902 5902 5903 5904 5905 5905 5905 5906 5906 5907 5907 5908 5908 5909 5909
5852 5854 5857 5860 5862 5864 5866 5869 5870 5872 5874 5875 5877 5879 5881 5883 5884 5886 5887 5889 5891 5892 5893 5894 5895 5896 5897 5898 5899 5900 5901 5902 5902 5903 5903 5904 5904 5904 5905 5905 5906 5906 5906
5844 5846 5849 5852 5854 5857 5859 5861 5864 5865 5867 5870 5872 5874 5875 5878 5879 5880 5882 5884 5886 5888 5890 5891 5892 5893 5894 5895 5896 5897 5898 5899 5899 5900 5901 5901 5901 5902 5902 5902 5902 5902 5903
5834 5837 5840 5843 5846 5849 5851 5854 5856 5858 5861 5863 5866 5867 5870 5872 5874 5875 5877 5879 5881 5883 5885 5887 5888 5889 5890 5891 5892 5894 5894 5895 5896 5897 5897 5898 5898 5898 5899 5899 5899 5899 5899
5825 5828 5831 5834 5837 5840 5843 5846 5848 5851 5853 5856 5858 5861 5863 5865 5867 5870 5872 5873 5875 5877 5879 5881 5883 5885 5886 5887 5888 5889 5890 5891 5892 5893 5893 5894 5894 5895 5895 5895 5895 5895 5895
5814 5817 5821 5824 5828 5831 5835 5838 5840 5843 5846 5848 5851 5853 5856 5858 5861 5864 5866 5868 5870 5872 5874 5876 5878 5880 5882 5883 5883 5885 5886 5887 5888 5888 5889 5890 5890 5890 5890 5890 5890 5890 5890
5803 5807 5811 5814 5818 5822 5825 5829 5832 5835 5838 5840 5843 5846 5849 5852 5854 5857 5859 5862 5864 5866 5868 5870 5872 5874 5875 5878 5879 5879 5880 5881 5882 5883 5884 5884 5885 5885 5885 5885 5885 5885 5885
5794 5797 5800 5804 5808 5812 5815 5819 5823 5827 5830 5833 5835 5838 5841 5844 5847 5849 5852 5855 5857 5860 5862 5864 5866 5868 5869 5871 5873 5874 5874 5875 5876 5877 5878 5878 5879 5879 5880 5880 5879 5879 5879
5784 5788 5791 5795 5799 5803 5806 5810 5814 5818 5821 5824 5827 5830 5833 5836 5839 5842 5845 5847 5850 5853 5855 5858 5859 5861 5863 5865 5866 5867 5868 5869 5870 5871 5871 5872 5872 5873 5873 5873 5873 5873 5872
5776 5779 5782 5786 5790 5794 5798 5802 5806 5809 5813 5816 5819 5823 5826 5828 5831 5834 5837 5840 5842 5845 5848 5850 5852 5854 5856 5858 5859 5860 5861 5862 5863 5864 5864 5865 5865 5866 5866 5866 5866 5866 5865
5769 5772 5775 5779 5782 5786 5790 5794 5797 5801 5805 5808 5812 5815 5818 5821 5823 5826 5829 5832 5835 5838 5841 5843 5845 5847 5848 5850 5851 5853 5854 5855 5855 5856 5857 5857 5857 5858 5858 5858 5858 5858 5857
5765 5766 5769 5772 5776 5779 5782 5786 5790 5793 5797 5800 5804 5807 5810 5813 5816 5819 5821 5824 5827 5830 5833 5835 5837 5839 5840 5842 5843 5845 5846 5847 5847 5848 5849 5849 5850 5850 5850 5850 5850 5850 5849
5761 5763 5764 5767 5770 5773 5776 5779 5782 5786 5790 5793 5796 5799 5803 5806 5808 5811 5814 5816 5819 5822 5824 5827 5829 5830 5832 5834 5835 5836 5838 5839 5839 5840 5840 5841 5842 5842 5842 5842 5842 5842 5842
5759 5760 5762 5764 5766 5768 5771 5774 5776 5780 5783 5786 5789 5792 5795 5798 5801 5803 5806 5809 5811 5814 5817 5819 5821 5823 5824 5826 5828 5829 5830 5830 5831 5832 5832 5833 5833 5834 5834 5834 5834 5834 5833
5759 5759 5760 5761 5762 5765 5767 5768 5771 5773 5777 5780 5783 5785 5788 5791 5794 5796 5799 5801 5804 5807 5809 5812 5813 5815 5817 5818 5820 5821 5822 5823 5823 5824 5824 5824 5825 5825 5825 5826 5826 5826 5826
5759 5758 5759 5759 5760 5761 5763 5765 5767 5769 5771 5774 5777 5779 5782 5784 5787 5790 5792 5795 5798 5800 5802 5804 5806 5808 5810 5811 5812 5814 5815 5816 5816 5816 5817 5818 5818 5818 5818 5818 5819 5819 5819
5759 5758 5758 5758 5758 5758 5760 5761 5762 5764 5766 5769 5771 5774 5776 5778 5781 5783 5786 5788 5791 5793 5795 5797 5799 5801 5802 5804 5806 5807 5809 5809 5810 5811 5811 5812 5812 5812 5812 5812 5812 5812 5812
5760 5758 5757 5757 5756 5756 5757 5757 5759 5760 5762 5764 5766 5768 5770 5773 5775 5777 5780 5782 5785 5787 5789 5791 5793 5795 5796 5798 5800 5801 5803 5804 5804 5805 5806 5806 5806 5807 5807 5807 5807 5807 5806
5760 5758 5757 5756 5755 5754 5754 5754 5755 5756 5758 5760 5762 5764 5766 5768 5770 5773 5775 5777 5780 5782 5785 5787 5789 5790 5792 5793 5795 5796 5797 5798 5799 5800 5801 5801 5801 5802 5802 5802 5802 5801 5801
5761 5759 5757 5756 5754 5753 5753 5752 5753 5754 5755 5756 5758 5760 5762 5764 5766 5769 5771 5773 5776 5778 5780 5783 5785 5786 5788 5789 5791 5793 5794 5794 5795 5796 5797 5797 5797 5797 5797 5797 5797 5796 5795
5762 5760 5758 5756 5754 5753 5752 5751 5751 5752 5752 5754 5755 5757 5759 5761 5763 5766 5768 5770 5772 5775 5777 5779 5781 5783 5784 5786 5788 5789 5790 5791 5792 5793 5794 5794 5794 5794 5794 5793 5792 5792 5791
5764 5762 5760 5757 5755 5753 5751 5751 5751 5751 5751 5752 5754 5755 5758 5760 5762 5764 5766 5768 5770 5773 5775 5777 5779 5780 5782 5783 5785 5786 5788 5789 5790 5791 5792 5792 5792 5791 5791 5790 5789 5788 5787